Voltar ao catálogo

SL-12 R/B(2)

AtivoHEO
NORAD 25465·ROCKET BODY·🇷🇺 Russia

Lançado Aug 30, 1998 de Baikonur Cosmodrome

Loading…

Próximas Passagens (próximas 24 horas)

TLE

AtualizadoSource: Space-Track

Época: Sep 14, 2026, 10:28 UTC

1 25465U 98050D   26257.43638280 -.00000174  00000-0  00000-0 0  9993
2 25465  14.9470  71.3110 4956802  89.3607 310.4214  1.82826445 87953

Acompanhe SL-12 R/B(2) em tempo real com AllMySat

Download on the App Store